CZ-6A DEB

Satellite information

Favourite Embed

Satellite Type and Status

DEBRISIN ORBIT

Key statistics

Satellite CZ-6A DEB at a glance.

Uptime

441

Days in orbit

Revolutions

≈ 14.3

Per day

Orbit

LEO

Low Earth Orbit

Inclination

88.9

Latest

Satellite identification and parameters

Extended collection of information and parameters for CZ-6A DEB.

Object identification

Identified? True

Debris? True

Object name: CZ-6A DEB

International designator: 2024-140EP

Object number (NORAD): 60764

Object ID (CCSDS): 60764

Country: PEOPLES REPUBLIC OF CHINA (PRC)

Current information (Y/N): Y

RCS size: SMALL

Orbital parameters

Period: 100.939 minutes

Inclination: 88.9443 deg

SMA: 7181.237 km

Apoapsis: 817.149 km

Periapsis: 789.055 km

RAAN: 298.485 deg

Eccentricy: 0.00195607

Argument of periapsis: 163.9793 deg

Mean anomaly: 196.2024 deg

Mean motion: 14.26605547 rev/day

Mean motion (dot): 0.00000691 rev/day2

B* drag term: 0.0002797387 1/REarth

Two-line elements (TLE)

Creation date: Oct. 21, 2025, 3:26 a.m.

Reference frame: TEME

Reference center: EARTH

Epoch: Oct. 20, 2025, 6:02 p.m. UTC

TLE line 0: 0 CZ-6A DEB

TLE line 1: 1 60764U 24140EP 25293.75192639 .00000691 00000-0 27974-3 0 9995

TLE line 2: 2 60764 88.9443 298.4850 0019561 163.9793 196.2024 14.26605547 61930

Live tracking on map

Real-time ground track for satellite CZ-6A DEB.

In-orbit conjunctions

A list of the most updated potential collisions computed for object CZ-6A DEB.

Target Orbit TCA Probability of collision Miss distance Type
COSMOS 1503 LEO 2025-04-29 14:05:18 0.01519195 43.0 (m) PAYLOAD
FENGYUN 1C DEB SSO 2025-03-02 11:20:26 0.0001164912 467.0 (m) DEBRIS
P/L 153 DEB LEO 2025-03-01 20:54:05 0.0003336389 433.0 (m) DEBRIS
SL-16 DEB LEO 2024-12-26 16:16:03 0.0004482619 630.0 (m) DEBRIS
CZ-6A R/B LEO 2024-11-01 11:22:52 0.001646275 62.0 (m) ROCKET BODY

Associated space launch

18 Low Earth Orbit communication satellites with Ku, Q and V band payloads for the G60 constellation operated by Shanghai Spacecom Satellite Technology (SSST) with funding backed by the Shanghai local government. Initial constellation will consist of 1296 satellites by 2027 with long term plans to expand it to 12000 satellites.

CZ-6A DEB was lifted into orbit during the mission ‘Long March 6A | G60 Polar Group 01’, on board a Long March 6A space rocket.

The launch took place on Aug. 6, 2024, 6:42 a.m. from Launch Complex 9A.

For more information about the launch, click the button.

Launch to space Long March 6A | G60 Polar Group 01
Long March 6A | G60 Polar Group 01

Agency: N/A

Status: Launch Successful

Launch date: Aug. 6, 2024, 6:42 a.m. UTC

Rocket: Long March 6A

Launch pad: Launch Complex 9A

Location: Taiyuan Satellite Launch Center, People's Republic of China

...

Latest news about this satellite

News about space launch
Brightness of first Chinese broadband constellation satellites alarms astronomers

The first satellites of a Chinese broadband constellation are significantly brighter than those of Western systems, posing a new challenge for astronomers.

News about space launch
Chinese rocket stage breaks up into cloud of more than 700 pieces of space debris

HELSINKI — A Chinese Long March 6A rocket’s upper stage has fragmented into a cloud of over 700 pieces of space debris, adding to concerns about long-term orbital safety. China […]

News about space launch
China's Thousand Sails Megaconstellation Kicks Off with Dangerous Debris Field

China's Thousand Sails Megaconstellation Kicks Off with Dangerous Debris Field


Newsletter sign-up

Weekly statistics, charts and insights to help you stay on top of the space industry.